Weather in Tromsø

Norway     69°39′17″N   18°57′46″E
В апреле 2022 года жителям России запретили посещать сайт meteo.paraplan.net по решению Генеральной прокуратуры. Аудитория сайта уменьшилась в 10 раз. Владельцы сайта не видят смысла в поддержке погодного сервера в таких условиях. Сайт будет закрыт в октябре.
temp.,
°C
wind,
m/s
gust,
m/s
humid.,
%
clouds,
%
prec.,
mm/h
press.,
hPa
HPBL,
m
6 october, thu
thu623:00+4ese3386100 0.0 99280
02:00+4ese3390100 0.0 988129
05:00+3se448793 0.0 984127
08:00+3sse5591100 0.3 981209
11:00+4s5689100 0.9 980174
14:00+6sse6883100 1.1 978336
17:00+6wsw182391100 1.4 9771137
20:00+6sw71295100 5.9 9781091
7 october, fri
fri723:00+6wsw91388100 2.8 981975
02:00+6wsw14178693 4.4 983812
05:00+6wsw131789100 1.8 9841104
08:00+6wsw14188284 2.8 9851060
11:00+6sw10168998 0.9 9861110
14:00+7sw11168185 2.4 986918
17:00+5sse578987 0.8 986189
20:00+5s228691 1.2 98579
8 october, sat
sat823:00+5ssw3487100 0.6 987266
02:00+5s788699 0.6 986301
05:00+4s67906 0.0 985199
08:00+4s45835 0.0 98580
11:00+6sse227164 0.0 98459
14:00+6ssw2272100 0.0 983111
17:00+5s337898 0.0 98433
20:00+4sw3388100 0.2 985317
9 october, sun
sun923:00+4s6697100 0.4 987220
02:00+4sw459498 1.1 988384
05:00+5sw81284100 0.6 990847
08:00+5wsw12158096 1.8 9911040
11:00+5w111480100 1.5 9931114
14:00+5w101380100 2.7 9951128
17:00+6wsw101375100 0.8 9971031
20:00+4ssw599398 1.5 998574
10 october, mon
mon1023:00+3s67919 0.3 998209
02:00+3sse5679100 0.3 997110
05:00+5sse5668100 0.0 995110
08:00+5se3366100 0.0 99270
11:00+6ese3363100 0.0 98875
14:00+6ese3366100 0.0 98584
17:00+5s5778100 0.1 985191
20:00+5s5785100 0.1 985234